CFG8CX EDDF-LGKS

Flight info

Callsign CFG8CX
Flight time N/A
Altitude 33000
Route CINDY6F/25C CINDY Z74 HAREM T104 XERUM DCT LUMUS DCT GORPA DCT OKSIG DCT OSLUD DCT MEDUX UM867 KOGAT DCT TALAS UM749 SKP UN137 NEVRA UT514 TUXEM UN132 KUPIS UN134 TIPAS DCT
Aircraft A321/M-SDE3FGHIRWY/LB1

Departure

Time 2026-05-07 08:15
Airport Frankfurt Main Airport (EDDF)

Arrival

Time N/A
Airport Kasos Airport (LGKS)
Time Latitude Longitude Altitude Speed Heading
2026-05-07 07:52 50.04826 8.58499 362 ft 0 kts 160°
2026-05-07 08:06 50.04832 8.58495 362 ft 4 kts 160°
2026-05-07 08:06 50.04857 8.58481 362 ft 4 kts 154°
2026-05-07 08:06 50.04879 8.58458 364 ft 4 kts 130°
2026-05-07 08:07 50.04890 8.58425 362 ft 4 kts 83°
2026-05-07 08:07 50.04889 8.58413 362 ft 0 kts 70°
2026-05-07 08:10 50.04892 8.58427 359 ft 6 kts 70°
2026-05-07 08:10 50.04924 8.58539 361 ft 14 kts 67°
2026-05-07 08:10 50.04910 8.58665 360 ft 11 kts 143°
2026-05-07 08:10 50.04848 8.58706 364 ft 11 kts 159°
2026-05-07 08:11 50.04767 8.58753 371 ft 12 kts 160°
2026-05-07 08:11 50.04705 8.58767 369 ft 7 kts 180°
2026-05-07 08:11 50.04676 8.58763 370 ft 2 kts 187°
2026-05-07 08:11 50.04668 8.58762 370 ft 0 kts 187°
2026-05-07 08:12 50.04636 8.58755 370 ft 11 kts 189°
2026-05-07 08:12 50.04560 8.58693 371 ft 12 kts 217°
2026-05-07 08:12 50.04499 8.58611 370 ft 11 kts 228°
2026-05-07 08:13 50.04481 8.58562 370 ft 0 kts 248°
2026-05-07 08:13 50.04478 8.58548 370 ft 7 kts 248°
2026-05-07 08:14 50.04392 8.58189 369 ft 70 kts 250°
2026-05-07 08:14 50.04149 8.57169 368 ft 128 kts 249°
2026-05-07 08:14 50.03913 8.56183 355 ft 159 kts 249°
2026-05-07 08:14 50.03496 8.54497 803 ft 164 kts 251°
2026-05-07 08:15 50.03098 8.52844 1473 ft 163 kts 253°
2026-05-07 08:15 50.02642 8.51163 1742 ft 181 kts 237°
2026-05-07 08:15 50.01593 8.49885 1870 ft 206 kts 204°
2026-05-07 08:15 50.00178 8.49176 2143 ft 219 kts 198°
2026-05-07 08:16 49.98649 8.49153 2548 ft 226 kts 161°
2026-05-07 08:16 49.97401 8.50593 3006 ft 227 kts 123°
2026-05-07 08:16 49.96594 8.52709 3525 ft 228 kts 118°
2026-05-07 08:16 49.95806 8.54898 3861 ft 242 kts 117°
2026-05-07 08:17 49.94941 8.57293 4071 ft 265 kts 118°
2026-05-07 08:17 49.93979 8.59785 4658 ft 272 kts 120°
2026-05-07 08:17 49.92987 8.62298 5348 ft 275 kts 120°
2026-05-07 08:17 49.91983 8.64845 5994 ft 279 kts 120°
2026-05-07 08:18 49.90968 8.67433 6624 ft 282 kts 120°
2026-05-07 08:18 49.89945 8.70052 7232 ft 286 kts 120°
2026-05-07 08:18 49.88909 8.72709 7834 ft 290 kts 120°
2026-05-07 08:18 49.87874 8.75365 8424 ft 294 kts 121°
2026-05-07 08:19 49.86810 8.78095 9024 ft 297 kts 121°
2026-05-07 08:19 49.85735 8.80855 9610 ft 302 kts 122°
2026-05-07 08:19 49.84642 8.83660 10148 ft 306 kts 122°
2026-05-07 08:19 49.83504 8.86566 10327 ft 325 kts 122°
2026-05-07 08:20 49.82295 8.89655 10447 ft 344 kts 122°
2026-05-07 08:20 49.81019 8.92915 10576 ft 363 kts 122°
2026-05-07 08:20 49.79693 8.96300 10897 ft 372 kts 122°
2026-05-07 08:20 49.78344 8.99737 11458 ft 375 kts 122°